Time,TemperatureF,DewpointF,PressureIn,WindDirection,WindDirectionDegrees,WindSpeedMPH,WindSpeedGustMPH,Humidity,HourlyPrecipIn,Conditions,Clouds,dailyrainin,SoftwareType,DateUTC
2013-04-07 00:02:00,64.0,51.0,-100.00,West,265,11.0,21.0,62,-99.99,,,-99.99,,2013-04-07 05:02:00,
2013-04-07 00:12:00,63.0,49.0,-100.00,WSW,255,5.0,16.0,60,-99.99,,,-99.99,,2013-04-07 05:12:00,
2013-04-07 00:23:00,63.0,49.0,-100.00,WSW,255,5.0,16.0,60,-99.99,,,-99.99,,2013-04-07 05:23:00,
2013-04-07 00:43:00,61.0,48.0,-100.00,West,280,4.0,10.0,62,-99.99,,,-99.99,,2013-04-07 05:43:00,
2013-04-07 00:52:00,60.0,47.0,-100.00,WSW,255,4.0,9.0,63,-99.99,,,-99.99,,2013-04-07 05:52:00,
2013-04-07 01:02:00,60.0,47.0,-100.00,WSW,255,4.0,9.0,63,-99.99,,,-99.99,,2013-04-07 06:02:00,
2013-04-07 01:12:00,60.0,47.0,-100.00,WSW,250,4.0,9.0,63,-99.99,,,-99.99,,2013-04-07 06:12:00,
2013-04-07 01:22:00,59.0,47.0,-100.00,WSW,245,2.0,9.0,64,-99.99,,,-99.99,,2013-04-07 06:22:00,
2013-04-07 01:32:00,59.0,47.0,-100.00,WSW,245,2.0,9.0,64,-99.99,,,-99.99,,2013-04-07 06:32:00,
2013-04-07 01:42:00,57.0,46.0,-100.00,SW,220,4.0,6.0,65,-99.99,,,-99.99,,2013-04-07 06:42:00,
2013-04-07 01:52:00,56.0,45.0,-100.00,SW,220,4.0,6.0,66,-99.99,,,-99.99,,2013-04-07 06:52:00,
2013-04-07 02:02:00,56.0,45.0,-100.00,SW,220,4.0,6.0,66,-99.99,,,-99.99,,2013-04-07 07:02:00,
2013-04-07 02:22:00,55.0,45.0,-100.00,WSW,245,1.0,4.0,69,-99.99,,,-99.99,,2013-04-07 07:22:00,
2013-04-07 02:32:00,55.0,45.0,-100.00,WSW,245,1.0,4.0,69,-99.99,,,-99.99,,2013-04-07 07:32:00,
2013-04-07 02:42:00,55.0,46.0,-100.00,West,270,3.0,6.0,70,-99.99,,,-99.99,,2013-04-07 07:42:00,
2013-04-07 02:52:00,56.0,46.0,-100.00,North,5,3.0,4.0,71,-99.99,,,-99.99,,2013-04-07 07:52:00,
2013-04-07 03:02:00,56.0,46.0,-100.00,North,5,3.0,4.0,71,-99.99,,,-99.99,,2013-04-07 08:02:00,
2013-04-07 03:12:00,56.0,46.0,-100.00,North,5,3.0,4.0,71,-99.99,,,-99.99,,2013-04-07 08:12:00,
2013-04-07 03:22:00,54.0,46.0,-100.00,NW,310,0.0,6.0,76,-99.99,,,-99.99,,2013-04-07 08:22:00,
2013-04-07 03:32:00,54.0,46.0,-100.00,NW,310,0.0,6.0,76,-99.99,,,-99.99,,2013-04-07 08:32:00,
2013-04-07 03:42:00,54.0,47.0,-100.00,WNW,290,0.0,2.0,76,-99.99,,,-99.99,,2013-04-07 08:42:00,
2013-04-07 03:53:00,53.0,47.0,-100.00,West,265,0.0,3.0,79,-99.99,,,-99.99,,2013-04-07 08:53:00,
2013-04-07 04:02:00,53.0,47.0,-100.00,West,265,0.0,3.0,79,-99.99,,,-99.99,,2013-04-07 09:02:00,
2013-04-07 04:12:00,52.0,47.0,-100.00,NW,320,1.0,5.0,81,-99.99,,,-99.99,,2013-04-07 09:12:00,
2013-04-07 04:22:00,52.0,47.0,-100.00,SW,215,0.0,0.0,82,-99.99,,,-99.99,,2013-04-07 09:22:00,
2013-04-07 04:33:00,52.0,47.0,-100.00,SW,215,0.0,0.0,82,-99.99,,,-99.99,,2013-04-07 09:33:00,
2013-04-07 04:43:00,51.0,47.0,-100.00,SW,220,0.0,0.0,84,-99.99,,,-99.99,,2013-04-07 09:43:00,
2013-04-07 04:54:00,52.0,48.0,-100.00,NNW,340,0.0,2.0,86,-99.99,,,-99.99,,2013-04-07 09:54:00,
2013-04-07 05:04:00,52.0,48.0,-100.00,NNW,340,0.0,2.0,86,-99.99,,,-99.99,,2013-04-07 10:04:00,
2013-04-07 05:13:00,51.0,48.0,-100.00,NNE,15,2.0,3.0,88,-99.99,,,-99.99,,2013-04-07 10:13:00,
2013-04-07 05:23:00,51.0,48.0,-100.00,NNE,15,1.0,4.0,88,-99.99,,,-99.99,,2013-04-07 10:23:00,
2013-04-07 05:33:00,51.0,48.0,-100.00,NNE,15,1.0,4.0,88,-99.99,,,-99.99,,2013-04-07 10:33:00,
2013-04-07 05:43:00,50.0,47.0,-100.00,North,5,0.0,1.0,89,-99.99,,,-99.99,,2013-04-07 10:43:00,
2013-04-07 05:54:00,49.0,46.0,-100.00,NW,325,0.0,2.0,91,-99.99,,,-99.99,,2013-04-07 10:54:00,
2013-04-07 06:03:00,49.0,46.0,-100.00,NW,325,0.0,2.0,91,-99.99,,,-99.99,,2013-04-07 11:03:00,
2013-04-07 06:12:00,49.0,47.0,-100.00,NW,320,1.0,2.0,93,-99.99,,,-99.99,,2013-04-07 11:12:00,
2013-04-07 06:22:00,49.0,47.0,-100.00,North,350,0.0,2.0,95,-99.99,,,-99.99,,2013-04-07 11:22:00,
2013-04-07 06:33:00,49.0,47.0,-100.00,North,350,0.0,2.0,95,-99.99,,,-99.99,,2013-04-07 11:33:00,
2013-04-07 06:42:00,48.0,47.0,-100.00,NNW,335,1.0,3.0,96,-99.99,,,-99.99,,2013-04-07 11:42:00,
2013-04-07 06:53:00,48.0,47.0,-100.00,North,350,0.0,2.0,96,-99.99,,,-99.99,,2013-04-07 11:53:00,
2013-04-07 07:02:00,48.0,47.0,-100.00,North,350,0.0,2.0,96,-99.99,,,-99.99,,2013-04-07 12:02:00,
2013-04-07 07:12:00,47.0,46.0,-100.00,North,350,0.0,0.0,97,-99.99,,,-99.99,,2013-04-07 12:12:00,
2013-04-07 07:23:00,47.0,46.0,-100.00,North,350,0.0,0.0,99,-99.99,,,-99.99,,2013-04-07 12:23:00,
2013-04-07 07:34:00,47.0,46.0,-100.00,North,350,0.0,0.0,99,-99.99,,,-99.99,,2013-04-07 12:34:00,
2013-04-07 07:43:00,46.0,46.0,-100.00,North,355,0.0,0.0,99,-99.99,,,-99.99,,2013-04-07 12:43:00,
2013-04-07 07:54:00,47.0,47.0,-100.00,North,350,0.0,0.0,99,-99.99,,,-99.99,,2013-04-07 12:54:00,
2013-04-07 08:03:00,47.0,47.0,-100.00,North,350,0.0,0.0,99,-99.99,,,-99.99,,2013-04-07 13:03:00,
2013-04-07 08:13:00,49.0,48.0,-100.00,NNW,330,1.0,4.0,99,-99.99,,,-99.99,,2013-04-07 13:13:00,
2013-04-07 08:22:00,50.0,50.0,-100.00,NNW,345,0.0,2.0,99,-99.99,,,-99.99,,2013-04-07 13:22:00,
2013-04-07 08:32:00,50.0,50.0,-100.00,NNW,345,0.0,2.0,99,-99.99,,,-99.99,,2013-04-07 13:32:00,
2013-04-07 08:42:00,52.0,50.0,-100.00,NE,40,0.0,1.0,91,-99.99,,,-99.99,,2013-04-07 13:42:00,
2013-04-07 08:53:00,54.0,47.0,-100.00,NW,325,1.0,4.0,79,-99.99,,,-99.99,,2013-04-07 13:53:00,
2013-04-07 09:02:00,54.0,47.0,-100.00,NW,325,1.0,4.0,79,-99.99,,,-99.99,,2013-04-07 14:02:00,
2013-04-07 09:12:00,54.0,46.0,-100.00,NNW,335,2.0,4.0,72,-99.99,,,-99.99,,2013-04-07 14:12:00,
2013-04-07 09:23:00,55.0,45.0,-100.00,North,0,4.0,5.0,70,-99.99,,,-99.99,,2013-04-07 14:23:00,
2013-04-07 09:33:00,55.0,45.0,-100.00,North,0,4.0,5.0,70,-99.99,,,-99.99,,2013-04-07 14:33:00,
2013-04-07 09:43:00,56.0,46.0,-100.00,NNW,330,3.0,4.0,68,-99.99,,,-99.99,,2013-04-07 14:43:00,
2013-04-07 09:54:00,57.0,46.0,-100.00,North,350,2.0,5.0,66,-99.99,,,-99.99,,2013-04-07 14:54:00,
2013-04-07 10:03:00,57.0,46.0,-100.00,North,350,2.0,5.0,66,-99.99,,,-99.99,,2013-04-07 15:03:00,
2013-04-07 10:12:00,58.0,45.0,-100.00,NNW,335,2.0,5.0,63,-99.99,,,-99.99,,2013-04-07 15:12:00,
2013-04-07 10:22:00,59.0,45.0,-100.00,NNW,335,1.0,5.0,60,-99.99,,,-99.99,,2013-04-07 15:22:00,
2013-04-07 10:34:00,59.0,45.0,-100.00,NNW,335,1.0,5.0,60,-99.99,,,-99.99,,2013-04-07 15:34:00,
2013-04-07 10:44:00,60.0,46.0,-100.00,NNW,345,1.0,4.0,58,-99.99,,,-99.99,,2013-04-07 15:44:00,
2013-04-07 10:55:00,61.0,44.0,-100.00,NW,325,3.0,4.0,54,-99.99,,,-99.99,,2013-04-07 15:55:00,
2013-04-07 11:04:00,61.0,44.0,-100.00,NW,325,3.0,4.0,54,-99.99,,,-99.99,,2013-04-07 16:04:00,
2013-04-07 11:13:00,62.0,45.0,-100.00,NNE,25,2.0,5.0,53,-99.99,,,-99.99,,2013-04-07 16:13:00,
2013-04-07 11:24:00,63.0,45.0,-100.00,North,10,4.0,6.0,53,-99.99,,,-99.99,,2013-04-07 16:24:00,
2013-04-07 11:33:00,63.0,45.0,-100.00,North,10,4.0,6.0,53,-99.99,,,-99.99,,2013-04-07 16:33:00,
2013-04-07 11:43:00,64.0,46.0,-100.00,North,0,4.0,6.0,53,-99.99,,,-99.99,,2013-04-07 16:43:00,
2013-04-07 11:54:00,65.0,47.0,-100.00,NNE,20,4.0,7.0,52,-99.99,,,-99.99,,2013-04-07 16:54:00,
2013-04-07 12:04:00,65.0,47.0,-100.00,NNE,20,4.0,7.0,52,-99.99,,,-99.99,,2013-04-07 17:04:00,
2013-04-07 12:13:00,67.0,47.0,-100.00,NNE,25,4.0,6.0,50,-99.99,,,-99.99,,2013-04-07 17:13:00,
2013-04-07 12:23:00,68.0,48.0,-100.00,NE,55,3.0,6.0,48,-99.99,,,-99.99,,2013-04-07 17:23:00,
2013-04-07 12:33:00,68.0,48.0,-100.00,NE,55,3.0,6.0,48,-99.99,,,-99.99,,2013-04-07 17:33:00,
2013-04-07 12:43:00,69.0,48.0,-100.00,NNE,30,4.0,6.0,47,-99.99,,,-99.99,,2013-04-07 17:43:00,
2013-04-07 12:54:00,69.0,47.0,-100.00,NNE,25,4.0,6.0,46,-99.99,,,-99.99,,2013-04-07 17:54:00,
2013-04-07 13:02:00,69.0,47.0,-100.00,NNE,25,4.0,6.0,46,-99.99,,,-99.99,,2013-04-07 18:02:00,
2013-04-07 13:13:00,69.0,47.0,-100.00,NNE,25,4.0,6.0,46,-99.99,,,-99.99,,2013-04-07 18:13:00,
2013-04-07 13:23:00,71.0,48.0,-100.00,NE,40,4.0,7.0,44,-99.99,,,-99.99,,2013-04-07 18:23:00,
2013-04-07 13:33:00,71.0,48.0,-100.00,NE,40,4.0,7.0,44,-99.99,,,-99.99,,2013-04-07 18:33:00,
2013-04-07 13:43:00,73.0,48.0,-100.00,SE,135,2.0,6.0,42,-99.99,,,-99.99,,2013-04-07 18:43:00,
2013-04-07 13:53:00,75.0,49.0,-100.00,ENE,75,0.0,3.0,40,-99.99,,,-99.99,,2013-04-07 18:53:00,
2013-04-07 14:02:00,75.0,49.0,-100.00,ENE,75,0.0,3.0,40,-99.99,,,-99.99,,2013-04-07 19:02:00,
2013-04-07 14:12:00,74.0,48.0,-100.00,ESE,110,1.0,4.0,39,-99.99,,,-99.99,,2013-04-07 19:12:00,
2013-04-07 14:22:00,75.0,48.0,-100.00,NNE,15,4.0,7.0,39,-99.99,,,-99.99,,2013-04-07 19:22:00,
2013-04-07 14:32:00,75.0,48.0,-100.00,NNE,15,4.0,7.0,39,-99.99,,,-99.99,,2013-04-07 19:32:00,
2013-04-07 14:42:00,76.0,49.0,-100.00,NNE,30,1.0,8.0,38,-99.99,,,-99.99,,2013-04-07 19:42:00,
2013-04-07 14:55:00,75.0,47.0,-100.00,SE,145,2.0,7.0,37,-99.99,,,-99.99,,2013-04-07 19:55:00,
2013-04-07 15:03:00,75.0,47.0,-100.00,SE,145,2.0,7.0,37,-99.99,,,-99.99,,2013-04-07 20:03:00,
2013-04-07 15:13:00,76.0,48.0,-100.00,South,175,1.0,4.0,37,-99.99,,,-99.99,,2013-04-07 20:13:00,
2013-04-07 15:22:00,77.0,48.0,-100.00,North,355,1.0,6.0,36,-99.99,,,-99.99,,2013-04-07 20:22:00,
2013-04-07 15:33:00,77.0,48.0,-100.00,North,355,1.0,6.0,36,-99.99,,,-99.99,,2013-04-07 20:33:00,
2013-04-07 15:43:00,78.0,48.0,-100.00,West,265,1.0,5.0,35,-99.99,,,-99.99,,2013-04-07 20:43:00,
2013-04-07 15:54:00,78.0,48.0,-100.00,East,80,4.0,5.0,36,-99.99,,,-99.99,,2013-04-07 20:54:00,
2013-04-07 16:03:00,78.0,48.0,-100.00,East,80,4.0,5.0,36,-99.99,,,-99.99,,2013-04-07 21:03:00,
2013-04-07 16:13:00,76.0,47.0,-100.00,SE,130,3.0,6.0,36,-99.99,,,-99.99,,2013-04-07 21:13:00,
2013-04-07 16:22:00,75.0,47.0,-100.00,North,355,5.0,7.0,37,-99.99,,,-99.99,,2013-04-07 21:22:00,
2013-04-07 16:34:00,75.0,47.0,-100.00,North,355,5.0,7.0,37,-99.99,,,-99.99,,2013-04-07 21:34:00,
2013-04-07 16:43:00,75.0,47.0,-100.00,NNE,20,4.0,6.0,37,-99.99,,,-99.99,,2013-04-07 21:43:00,
2013-04-07 16:55:00,74.0,46.0,-100.00,North,5,7.0,13.0,37,-99.99,,,-99.99,,2013-04-07 21:55:00,
2013-04-07 17:04:00,74.0,46.0,-100.00,North,5,7.0,13.0,37,-99.99,,,-99.99,,2013-04-07 22:04:00,
2013-04-07 17:14:00,74.0,47.0,-100.00,NNE,30,5.0,10.0,38,-99.99,,,-99.99,,2013-04-07 22:14:00,
2013-04-07 17:23:00,74.0,47.0,-100.00,ESE,110,3.0,6.0,38,-99.99,,,-99.99,,2013-04-07 22:23:00,
2013-04-07 17:34:00,74.0,47.0,-100.00,ESE,110,3.0,6.0,38,-99.99,,,-99.99,,2013-04-07 22:34:00,
2013-04-07 17:43:00,75.0,48.0,-100.00,NNE,30,3.0,10.0,39,-99.99,,,-99.99,,2013-04-07 22:43:00,
2013-04-07 17:53:00,76.0,47.0,-100.00,SSW,195,6.0,10.0,36,-99.99,,,-99.99,,2013-04-07 22:53:00,
2013-04-07 18:03:00,76.0,47.0,-100.00,SSW,195,6.0,10.0,36,-99.99,,,-99.99,,2013-04-07 23:03:00,
2013-04-07 18:13:00,76.0,47.0,-100.00,SE,135,4.0,8.0,36,-99.99,,,-99.99,,2013-04-07 23:13:00,
2013-04-07 18:22:00,74.0,46.0,-100.00,ESE,110,9.0,13.0,37,-99.99,,,-99.99,,2013-04-07 23:22:00,
2013-04-07 18:32:00,74.0,46.0,-100.00,ESE,110,9.0,13.0,37,-99.99,,,-99.99,,2013-04-07 23:32:00,
2013-04-07 18:43:00,75.0,47.0,-100.00,SSE,165,4.0,11.0,37,-99.99,,,-99.99,,2013-04-07 23:43:00,
2013-04-07 18:53:00,74.0,46.0,-100.00,SSE,150,4.0,10.0,36,-99.99,,,-99.99,,2013-04-07 23:53:00,
2013-04-07 19:02:00,74.0,46.0,-100.00,SSE,150,4.0,10.0,36,-99.99,,,-99.99,,2013-04-08 00:02:00,
2013-04-07 19:12:00,74.0,45.0,-100.00,SE,125,8.0,9.0,36,-99.99,,,-99.99,,2013-04-08 00:12:00,
2013-04-07 19:22:00,73.0,46.0,-100.00,SE,125,6.0,9.0,37,-99.99,,,-99.99,,2013-04-08 00:22:00,
2013-04-07 19:32:00,73.0,46.0,-100.00,SE,125,6.0,9.0,37,-99.99,,,-99.99,,2013-04-08 00:32:00,
2013-04-07 19:42:00,72.0,45.0,-100.00,ESE,120,5.0,8.0,38,-99.99,,,-99.99,,2013-04-08 00:42:00,
2013-04-07 19:53:00,71.0,44.0,-100.00,East,95,4.0,6.0,38,-99.99,,,-99.99,,2013-04-08 00:53:00,
2013-04-07 20:03:00,71.0,44.0,-100.00,East,95,4.0,6.0,38,-99.99,,,-99.99,,2013-04-08 01:03:00,
2013-04-07 20:12:00,70.0,44.0,-100.00,East,90,4.0,6.0,39,-99.99,,,-99.99,,2013-04-08 01:12:00,
2013-04-07 20:22:00,70.0,44.0,-100.00,East,95,5.0,8.0,40,-99.99,,,-99.99,,2013-04-08 01:22:00,
2013-04-07 20:33:00,70.0,44.0,-100.00,East,95,5.0,8.0,40,-99.99,,,-99.99,,2013-04-08 01:33:00,
2013-04-07 20:43:00,69.0,44.0,-100.00,ESE,115,4.0,6.0,40,-99.99,,,-99.99,,2013-04-08 01:43:00,
2013-04-07 20:55:00,68.0,43.0,-100.00,East,95,5.0,7.0,40,-99.99,,,-99.99,,2013-04-08 01:55:00,
2013-04-07 21:03:00,68.0,43.0,-100.00,East,95,5.0,7.0,40,-99.99,,,-99.99,,2013-04-08 02:03:00,
2013-04-07 21:12:00,67.0,43.0,-100.00,ESE,110,5.0,8.0,42,-99.99,,,-99.99,,2013-04-08 02:12:00,
2013-04-07 21:22:00,67.0,43.0,-100.00,ESE,120,6.0,10.0,42,-99.99,,,-99.99,,2013-04-08 02:22:00,
2013-04-07 21:33:00,67.0,43.0,-100.00,ESE,120,6.0,10.0,42,-99.99,,,-99.99,,2013-04-08 02:33:00,
2013-04-07 21:47:00,66.0,43.0,-100.00,ESE,110,6.0,10.0,43,-99.99,,,-99.99,,2013-04-08 02:47:00,
2013-04-07 21:54:00,66.0,43.0,-100.00,ESE,110,7.0,12.0,43,-99.99,,,-99.99,,2013-04-08 02:54:00,
2013-04-07 22:08:00,66.0,43.0,-100.00,ESE,110,7.0,12.0,43,-99.99,,,-99.99,,2013-04-08 03:08:00,
2013-04-07 22:15:00,66.0,43.0,-100.00,ESE,110,9.0,13.0,43,-99.99,,,-99.99,,2013-04-08 03:15:00,
2013-04-07 22:24:00,66.0,43.0,-100.00,ESE,115,6.0,13.0,44,-99.99,,,-99.99,,2013-04-08 03:24:00,
2013-04-07 22:34:00,66.0,43.0,-100.00,ESE,115,6.0,13.0,44,-99.99,,,-99.99,,2013-04-08 03:34:00,
2013-04-07 22:47:00,65.0,44.0,-100.00,ESE,115,9.0,14.0,45,-99.99,,,-99.99,,2013-04-08 03:47:00,
2013-04-07 22:57:00,66.0,44.0,-100.00,SE,130,11.0,16.0,46,-99.99,,,-99.99,,2013-04-08 03:57:00,
2013-04-07 23:03:00,66.0,44.0,-100.00,SE,130,11.0,16.0,46,-99.99,,,-99.99,,2013-04-08 04:03:00,
2013-04-07 23:12:00,66.0,46.0,-100.00,ESE,120,11.0,16.0,48,-99.99,,,-99.99,,2013-04-08 04:12:00,
2013-04-07 23:23:00,66.0,47.0,-100.00,SE,135,10.0,18.0,51,-99.99,,,-99.99,,2013-04-08 04:23:00,
2013-04-07 23:33:00,66.0,47.0,-100.00,SE,135,10.0,18.0,51,-99.99,,,-99.99,,2013-04-08 04:33:00,
2013-04-07 23:44:00,66.0,51.0,-100.00,SE,135,8.0,17.0,58,-99.99,,,-99.99,,2013-04-08 04:44:00,
2013-04-07 23:53:00,66.0,53.0,-100.00,SSE,150,9.0,21.0,64,-99.99,,,-99.99,,2013-04-08 04:53:00,